This is the latest recevied weather packets stored in our database for station/object W0WC. If no packets are shown the sender has not sent any weather packets the latest 10 day(s).
| Time | Temp. | Humidity | Pressure | Rain* | Wind** | Luminosity | Snow |
|---|---|---|---|---|---|---|---|
| 1788313452 | 33.33° C | 42% | 1015.1 hPa | 0 mm | - | 0 W/m² | - |
| 1788313150 | 33.33° C | 41% | 1014.9 hPa | 0 mm | - | 0 W/m² | - |
| 1788312846 | 33.89° C | 41% | 1015 hPa | 0 mm | - | 0 W/m² | - |
| 1788312542 | 33.89° C | 39% | 1014.9 hPa | 0 mm | - | 0 W/m² | - |
| 1788312237 | 33.89° C | 39% | 1015 hPa | 0 mm | - | 0 W/m² | - |
| 1788311933 | 33.89° C | 39% | 1014.9 hPa | 0 mm | - | 0 W/m² | - |
| 1788311633 | 33.89° C | 39% | 1014.9 hPa | 0 mm | - | 0 W/m² | - |
| 1788311332 | 33.89° C | 38% | 1014.9 hPa | 0 mm | - | 0 W/m² | - |
| 1788311027 | 34.44° C | 38% | 1014.7 hPa | 0 mm | - | 0 W/m² | - |
| 1788310726 | 34.44° C | 38% | 1014.8 hPa | 0 mm | - | 0 W/m² | - |
| 1788310420 | 34.44° C | 38% | 1014.8 hPa | 0 mm | - | 1 W/m² | - |
| 1788310116 | 35° C | 37% | 1014.8 hPa | 0 mm | - | 2 W/m² | - |
| 1788309816 | 35° C | 37% | 1014.7 hPa | 0 mm | - | 4 W/m² | - |
| 1788309511 | 35° C | 37% | 1014.8 hPa | 0 mm | - | 7 W/m² | - |
| 1788309206 | 35.56° C | 36% | 1014.9 hPa | 0 mm | - | 10 W/m² | - |
| 1788308902 | 35.56° C | 35% | 1014.9 hPa | 0 mm | - | 14 W/m² | - |
| 1788308601 | 35.56° C | 35% | 1014.9 hPa | 0 mm | - | 19 W/m² | - |
| 1788308297 | 36.11° C | 35% | 1014.8 hPa | 0 mm | - | 23 W/m² | - |
| 1788307992 | 36.11° C | 34% | 1014.8 hPa | 0 mm | - | 27 W/m² | - |
| 1788307692 | 36.11° C | 34% | 1015.1 hPa | 0 mm | - | 31 W/m² | - |
| 1788307387 | 36.11° C | 34% | 1014.9 hPa | 0 mm | - | 36 W/m² | - |
| 1788307082 | 36.11° C | 34% | 1014.9 hPa | 0 mm | - | 44 W/m² | - |
| 1788306776 | 36.67° C | 34% | 1014.9 hPa | 0 mm | - | 47 W/m² | - |
| 1788306476 | 37.22° C | 33% | 1015.1 hPa | 0 mm | - | 64 W/m² | - |
| 1788306171 | 37.22° C | 33% | 1015 hPa | 0 mm | - | 74 W/m² | - |
* Rain latest hour (hover to see other rain measurements)
** Current wind speed in m/s (hover to see current wind gust speed)